This is the latest recevied weather packets stored in our database for station/object OE6JUE. If no packets are shown the sender has not sent any weather packets the latest 10 day(s).
| Time | Temp. | Humidity | Pressure | Rain* | Wind** | Luminosity | Snow |
|---|---|---|---|---|---|---|---|
| 1778044555 | 17.78° C | 54% | 1011.5 hPa | 0 mm | - | - | - |
| 1778044255 | 18.33° C | 61% | 1011.5 hPa | 0 mm | - | - | - |
| 1778043955 | 17.22° C | 67% | 1011.5 hPa | 0 mm | - | - | - |
| 1778043655 | 15.56° C | 71% | 1011.5 hPa | - | - | - | - |
| 1778043355 | 15.56° C | 71% | 1011.5 hPa | 0 mm | - | - | - |
| 1778043055 | 15.56° C | 79% | 1011.5 hPa | 0 mm | - | - | - |
| 1778042755 | 14.44° C | 84% | 1011.5 hPa | 0 mm | - | - | - |
| 1778042455 | 12.78° C | 88% | 1011.4 hPa | 0 mm | - | - | - |
| 1778042155 | 12.78° C | 88% | 1011.4 hPa | 0 mm | - | - | - |
| 1778041855 | 11.11° C | 91% | 1011.3 hPa | 0 mm | - | - | - |
| 1778041555 | 10° C | 91% | 1011.4 hPa | 0 mm | - | - | - |
| 1778041254 | 8.89° C | 90% | 1011.2 hPa | 0 mm | - | - | - |
| 1778040955 | 8.33° C | 90% | 1011.2 hPa | 0 mm | - | - | - |
| 1778040654 | 8.33° C | 90% | 1011.4 hPa | 0 mm | - | - | - |
| 1778040355 | 8.33° C | 90% | 1011.4 hPa | 0 mm | - | - | - |
| 1778040055 | 8.89° C | 90% | 1011.4 hPa | - | - | - | - |
| 1778039755 | 8.89° C | 90% | 1011.4 hPa | 0 mm | - | - | - |
| 1778039455 | 8.33° C | 90% | 1011.2 hPa | 0 mm | - | - | - |
| 1778039154 | 8.33° C | 90% | 1011.1 hPa | 0 mm | - | - | - |
| 1778038855 | 8.33° C | 90% | 1011.1 hPa | 0 mm | - | - | - |
| 1778038555 | 8.33° C | 90% | 1011.1 hPa | 0 mm | - | - | - |
| 1778038254 | 8.33° C | 90% | 1011.2 hPa | 0 mm | - | - | - |
| 1778037955 | 8.89° C | 90% | 1011 hPa | 0 mm | - | - | - |
| 1778037655 | 8.89° C | 90% | 1011.2 hPa | 0 mm | - | - | - |
| 1778037354 | 8.89° C | 90% | 1011.2 hPa | 0 mm | - | - | - |
* Rain latest hour (hover to see other rain measurements)
** Current wind speed in m/s (hover to see current wind gust speed)